This is the latest recevied weather packets stored in our database for station/object M0UPS-13. If no packets are shown the sender has not sent any weather packets the latest 10 day(s).
| Time | Temp. | Humidity | Pressure | Rain* | Wind** | Luminosity | Snow |
|---|---|---|---|---|---|---|---|
| 1777898102 | 15° C | 75% | 1014.9 hPa | 0 mm | - | 150 W/m² | - |
| 1777897802 | 15° C | 74% | 1014.7 hPa | 0 mm | - | 133 W/m² | - |
| 1777897502 | 15° C | 74% | 1014.7 hPa | 0 mm | - | 119 W/m² | - |
| 1777897202 | 15° C | 74% | 1014.9 hPa | 0 mm | - | 141 W/m² | - |
| 1777896902 | 15° C | 74% | 1014.5 hPa | 0 mm | - | 116 W/m² | - |
| 1777896603 | 15.56° C | 74% | 1014.9 hPa | 0 mm | - | 136 W/m² | - |
| 1777896302 | 15° C | 75% | 1014.7 hPa | 0 mm | - | 199 W/m² | - |
| 1777896003 | 15° C | 74% | 1014.7 hPa | 0 mm | - | 200 W/m² | - |
| 1777895703 | 15.56° C | 73% | 1014.7 hPa | 0 mm | - | 142 W/m² | - |
| 1777895403 | 15.56° C | 73% | 1014.7 hPa | 0 mm | - | 163 W/m² | - |
| 1777895103 | 15° C | 75% | 1014.9 hPa | 0 mm | - | 178 W/m² | - |
| 1777894803 | 15° C | 77% | 1014.9 hPa | 0 mm | - | 176 W/m² | - |
| 1777894502 | 15° C | 74% | 1014.9 hPa | 0 mm | - | 133 W/m² | - |
| 1777894203 | 15° C | 76% | 1014.7 hPa | 0 mm | - | 158 W/m² | - |
| 1777893902 | 14.44° C | 76% | 1014.9 hPa | 0 mm | - | 158 W/m² | - |
| 1777893602 | 14.44° C | 76% | 1014.7 hPa | 0 mm | - | 157 W/m² | - |
| 1777893302 | 14.44° C | 75% | 1015.1 hPa | 0 mm | - | 118 W/m² | - |
| 1777893002 | 15° C | 75% | 1014.7 hPa | 0 mm | - | 116 W/m² | - |
| 1777892702 | 15° C | 75% | 1014.9 hPa | 0 mm | - | 114 W/m² | - |
| 1777892402 | 15° C | 75% | 1015 hPa | 0 mm | - | 134 W/m² | - |
| 1777892102 | 15° C | 76% | 1015 hPa | 0 mm | - | 138 W/m² | - |
| 1777891802 | 15° C | 76% | 1014.9 hPa | 0 mm | - | 152 W/m² | - |
| 1777891503 | 15° C | 75% | 1014.6 hPa | 0 mm | - | 158 W/m² | - |
| 1777891202 | 14.44° C | 76% | 1015.1 hPa | 0 mm | - | 185 W/m² | - |
| 1777890903 | 14.44° C | 77% | 1014.9 hPa | 0 mm | - | 172 W/m² | - |
* Rain latest hour (hover to see other rain measurements)
** Current wind speed in m/s (hover to see current wind gust speed)